OPS 4682 DEB, 55115

Orbit data source: Space-Track

OPS 4682 DEB, 55115 is space debris in LEO originally from a launch on Sat, 03 Apr 1965 UTC launched from the Air Force Western Test Range (AFWTR). Debris objects in space refer to the collection of defunct objects orbiting the Earth. Examples of debris include non-operational satellites, rocket bodies, and fragments generated from explosions, collisions, or faulty payload assembly.

Loading next visibility...
Identifier
55115, 1965-027HE
Orbit
LEO
Country
Flag of USUS
Related business
Manufacturer
Unknown
Mission
Spacecraft
Bus & Motor
Unknown
Mass
Unknown
Launch date (UTC)
1965-04-03 (61 years ago)
Launch vehicle
Unknown
Launch site
Air Force Western Test Range (AFWTR)
Object type
Payload
Rocket body
Debris
Shape & HBR
Unknown
Radar Cross Section
Small (<0.1 m²)

Expand to show TLE details & history
Last TLE update: 3 weeks ago

TLE from 3 weeks ago
0 OPS 4682 DEB
1 55115U 65027HE  26185.72864178 -.00000192  00000-0 -66917-3 0  9998
2 55115  90.2325 358.5432 0024099 302.3833  57.4956 12.99147275537532
Epoch: 2026-07-04T17:29Z
TLE epoch observation values (Epoch: 2026-07-04T17:29:14.649Z)
Latitude
-0.00011°
Longitude
173.494°
Altitude
1,258.443 km
Speed
7.231 km/s
True Right ascension
23h 54m 10s
True Declination
0° 00' 00"
Sunlit
Object was in daylight at epoch
Visualization orbit readout
Latitude
Unknown
Longitude
Unknown
Altitude
Unknown
Speed
Unknown
Apparent Right ascension
Unknown
Apparent Declination
Unknown
Sunlit
N/A
Visualization observer readout
Local Sidereal Time
23:11:17
Azimuth
Unknown
Elevation
Unknown
Doppler factor
Unknown
Orbital elements
Apogee altitude
1,280.971 km
Perigee altitude
1,244.144 km
Semi-major axis
7,640.695 km
Eccentricity
0.00241
Inclination
90.2325°
RAAN
358.5432°
Arg. of periapsis
302.3833°
True anomaly
57.72887°
Mean anomaly
57.4956°
Eccentric anomaly
57.6122°
Mean motion
3.2497 °/min
Orbital period
110.78 mins
BSTAR
-0.00066917
Loading maneuver chart data...
Computing Atmospheric mass density...
Loading historical data...
Loading historical data...
Loading historical data...
Loading historical data...
Loading historical data...
Loading historical data...
Loading historical data...

Documentation

Showing up to 5 results
|